Weather Roundup
Issued by NWS

Home | Current Version | Previous Version | Graphics & Text | Print | Product List | Glossary Off
Versions: 1 2 3 4 5 6 7 8 9 10 11 12 13 14 15 16 17 18 19 20 21 22 23 24 25 26 27 28 29 30 31 32 33 34 35 36 37 38 39 40 41 42 43 44 45 46 47 48 49 50

000
NZUS93 KARX 180810
HRRWXR

CURRENT HOURLY OBSERVATIONS ACROSS
MUCH OF THE UPPER MISSISSIPPI VALLEY
NATIONAL WEATHER SERVICE LA CROSSE WI
200 AM CST SAT NOV 18 2017


...SOUTHEAST MINNESOTA...


CITY           SKY/WX    TMP DP  RH WIND       PRES   REMARKS
ROCHESTER      CLOUDY    35  35 100 N13       29.65R WCI  26
ROCHESTER/MAYO CLOUDY    36  36 100 NW7G17    29.66R WCI  30
WINONA         CLOUDY    36  36 100 NW5       29.67R WCI  32
AUSTIN         CLOUDY    36  34  93 N8        29.65R FOG     WCI  29
ALBERT LEA     CLOUDY    36  36 100 N12       29.65F FOG     WCI  27
DODGE CENTER   CLOUDY    36  34  93 N10       29.65F FOG     WCI  28
PRESTON        CLOUDY    35  34  96 N9        29.63R FOG     WCI  27
OWATONNA       CLOUDY    36  36 100 N6        29.67F FOG     WCI  31
FARIBAULT      CLOUDY    36  36 100 N3        29.68F FOG
$$

...ELSEWHERE IN MINNESOTA...


CITY           SKY/WX    TMP DP  RH WIND       PRES   REMARKS
MINNEAPOLIS    CLOUDY    36  35  96 NW9       29.71R WCI  29
INTNL FALLS    CLOUDY    19  15  84 W3        29.75R FOG
DULUTH         CLOUDY    30  28  92 N8        29.67R WCI  22
RED WING       CLOUDY    37  34  87 CALM      29.66S
REDWOOD FALLS  PTCLDY    31  25  78 NW8       29.73R WCI  23
MANKATO        CLOUDY    34  33  96 N8        29.69F FOG     WCI  27
WORTHINGTON    CLOUDY    31  27  85 N16       29.72R WCI  20
FAIRMONT       CLOUDY    35  33  92 N12       29.69R WCI  27
$$

...SOUTHWEST WISCONSIN...


CITY           SKY/WX    TMP DP  RH WIND       PRES   REMARKS
LA CROSSE      CLOUDY    39  37  92 NW8       29.64R WCI  33
PRAIRIE DU CHI CLOUDY    38  37  95 N6        29.59S WCI  34
BOSCOBEL       LGT RAIN  40  37  89 VRB6      29.60R
LONE ROCK      CLOUDY    40  37  89 N7        29.59R
PLATTEVILLE    CLOUDY    38  38 100 N8        29.56R WCI  33
FORT MC COY    CLOUDY    35  35  99 CALM      29.62S
CAMP DOUGLAS   CLOUDY    36  36  99 N3        29.59F
MAUSTON-NEW LI CLOUDY    37  36  96 N5        29.59S FOG     WCI  33
VIROQUA        CLOUDY    36  36 100 N9        29.59R WCI  29
WIS DELLS      CLOUDY    36  36  98 N7        29.57R FOG     WCI  31
$$

...ELSEWHERE IN WISCONSIN...


CITY           SKY/WX    TMP DP  RH WIND       PRES   REMARKS
MILWAUKEE      CLOUDY    43  41  93 NW8       29.55S
MADISON        CLOUDY    38  37  97 N8        29.55F FOG     WCI  32
GREEN BAY      PTCLDY    36  36 100 N7        29.56F WCI  30
EAU CLAIRE     CLOUDY    35  33  92 N6        29.64R WCI  30
BLACK RVR FLS  CLOUDY    36  36 100 CALM      29.63R FOG
MEDFORD        CLOUDY    32  32  99 NW8       29.62R WCI  25
WAUSAU         CLOUDY    34  32  92 N7        29.58R WCI  28
WIS RAPIDS     CLOUDY    35  34  96 N6        29.60R WCI  30
MARSHFIELD     CLOUDY    34  32  92 N10       29.59R WCI  26
RICE LAKE      CLOUDY    33  33  99 N6        29.68S FOG     WCI  28
$$

...NORTHEAST IOWA...


CITY           SKY/WX    TMP DP  RH WIND       PRES   REMARKS
WATERLOO       CLOUDY    39  37  92 N13       29.61R WCI  31
DUBUQUE        CLOUDY    39  38  96 N15       29.55R FOG     WCI  31
DECORAH        CLOUDY    37  37 100 N10G16    29.61R WCI  30
MASON CITY     LGT RAIN  36  35  96 N13       29.64F WCI  27
CHARLES CITY   LGT RAIN  37  37 100 N9        29.63R WCI  31
OELWEIN        MIX PCPN  39  39 100 N13       29.60R WCI  32
$$

...ELSEWHERE IN IOWA...


CITY           SKY/WX    TMP DP  RH WIND       PRES   REMARKS
DES MOINES     CLOUDY    44  42  93 N17       29.56S
IOWA CITY      CLOUDY    46  43  89 N9        29.56R FOG
FORT DODGE     LGT RAIN  38  36  92 N10       29.64R WCI  31
MARSHALLTOWN   CLOUDY    40  39  97 N17G26    29.58S WCI  31
CEDAR RAPIDS   CLOUDY    42  41  96 N10       29.55R FOG
$$

...NORTHERN ILLINOIS...


CITY           SKY/WX    TMP DP  RH WIND       PRES   REMARKS
CHICAGO-OHARE  DRIZZLE   47  44  90 NE6       29.53F FOG
CHICAGO-MIDWAY DRZL/FOG  48  47  96 CALM      29.54F VSB 1
MOLINE         CLOUDY    46  43  89 CALM      29.52R FOG
ROCKFORD       CLOUDY    42  41  96 N6        29.55F FOG
PEORIA         LGT RAIN  50  49  96 N5        29.50F
$$

NOTE: "FAIR" INDICATES FEW OR NO CLOUDS BELOW 12,000 FEET WITH NO
SIGNIFICANT WEATHER AND/OR OBSTRUCTIONS TO VISIBILITY. WIND
SPEEDS ARE IN MILES-PER-HOUR.




USA.gov is the U.S. government's official web portal to all federal, state and local government web resources and services.